Terminal Aerodrome Forecast
Issued by NWS

Current Version | Previous Version | Text Only | Print | Product List | Glossary On
Versions: 1 2 3 4 5 6 7 8 9 10 11 12 13 14 15 16 17 18 19 20 21 22 23 24 25 26 27 28 29 30 31 32 33 34 35 36 37 38 39 40 41 42 43 44 45 46 47 48 49 50
000
FTAK31 PANC 131455 AAA
TAFASN
TAF AMD
PASN 131455Z 1315/1412 04017KT 6SM -SN BR SCT009 OVC014
      TEMPO 1315/1318 4SM -SN BR BKN009 OVC014
     FM132100 04015KT 5SM -SN BR OVC004=

USA.gov is the U.S. government's official web portal to all federal, state and local government web resources and services.